Temperature
17 17 17 16 16 16 16 16 16 15 15 15 15 14 14 14 14 13 13 13 13 13 13 13 13 13 13 13 13 13 13 13 13 12 12 12 12 12 12 11 11 11 10
17 17 16 16 16 16 16 16 15 15 15 15 14 14 14 14 13 13 13 13 13 13 13 13 13 13 13 13 13 13 12 12 12 12 12 12 12 11 11 11 11 10 10
16 16 16 16 16 15 15 15 15 15 14 14 14 14 13 13 13 13 13 13 13 13 13 13 13 13 12 12 12 12 12 12 12 12 12 11 11 11 11 11 10 10 10
15 15 15 15 15 15 15 14 14 14 14 14 13 13 13 13 13 13 12 12 12 12 12 12 12 12 12 12 11 12 12 12 11 11 11 11 11 11 10 10 10 9 9
15 15 15 15 14 14 14 14 14 13 13 13 13 12 12 12 12 12 12 12 12 12 12 12 12 12 12 11 11 11 11 11 11 11 10 10 10 10 10 10 9 9 8
14 14 14 14 14 13 13 13 13 13 13 12 12 12 12 12 12 12 12 12 12 12 12 12 11 11 11 11 11 10 10 10 10 10 10 10 9 9 9 9 8 8 7
14 14 14 14 14 13 13 13 13 12 12 12 12 12 12 11 12 12 11 11 11 11 11 11 11 11 11 10 10 10 9 9 9 9 9 9 9 8 8 8 7 7 7
14 14 14 14 13 13 13 13 12 12 12 12 12 11 11 11 12 12 12 12 12 11 11 11 11 11 10 10 10 9 9 8 8 8 8 8 7 7 7 7 6 6 6
14 14 14 13 13 13 13 13 12 12 12 12 12 11 11 11 12 12 12 12 12 11 11 11 11 10 10 9 9 9 8 8 7 6 6 6 6 6 5 5 5 5 5
14 14 13 13 13 13 12 12 12 12 12 12 12 11 11 11 11 11 11 11 11 11 11 11 10 10 9 9 8 8 7 7 7 6 5 5 5 5 4 4 4 4 4
13 13 13 13 13 12 12 12 12 12 12 11 11 11 11 11 10 10 10 11 11 11 10 10 10 9 9 8 8 7 7 6 6 5 5 4 4 4 4 4 3 3 3
13 13 13 12 12 12 12 12 12 11 11 11 11 11 10 10 10 10 10 10 10 10 9 9 9 8 8 7 7 6 6 5 5 4 4 3 3 3 3 3 3 3 3
12 12 12 12 12 12 12 11 11 11 11 11 10 10 10 10 10 9 9 9 9 9 8 8 8 7 7 7 6 6 5 4 4 3 3 2 2 2 2 2 2 2 2
12 12 11 11 11 11 11 11 11 11 10 10 10 10 9 9 9 9 9 8 8 8 8 7 7 7 6 6 5 5 4 3 3 2 2 2 1 2 2 1 1 1 1
11 11 10 10 10 10 10 10 10 10 10 9 9 9 9 9 8 8 8 8 7 7 7 7 6 6 5 5 4 4 3 3 2 2 1 1 1 1 1 0 0 0 0
10 10 10 10 9 9 9 9 9 9 9 9 8 8 8 8 8 8 7 7 7 6 6 6 5 5 4 4 3 3 2 2 1 1 1 0 0 -0 -0 -1 -1 -1 -1
9 9 9 9 9 8 8 8 8 8 8 8 7 7 7 7 7 6 6 6 6 5 5 4 4 4 3 3 2 2 2 1 1 0 -0 -0 -1 -1 -1 -1 -1 -1 -1
8 8 8 8 8 7 7 7 7 7 7 7 7 6 6 6 6 6 5 5 5 5 4 4 3 3 2 2 2 1 1 0 -0 -0 -1 -1 -1 -2 -2 -2 -2 -2 -2
7 7 7 7 7 7 7 6 6 6 6 6 6 5 5 5 5 5 4 4 4 3 3 3 2 2 1 1 1 0 -0 -1 -1 -1 -1 -2 -2 -2 -2 -3 -3 -3 -3
6 6 6 6 6 6 6 6 5 5 5 5 5 4 4 4 4 3 3 3 2 2 2 1 1 1 0 -0 -0 -1 -1 -1 -2 -2 -2 -3 -3 -3 -3 -3 -3 -3 -3
5 5 5 5 5 5 4 4 4 4 4 3 3 3 3 2 2 2 2 1 1 1 1 0 -0 -1 -1 -1 -2 -2 -2 -3 -3 -3 -3 -3 -3 -3 -3 -3 -3 -3 -3
4 3 3 3 3 3 3 3 3 3 3 2 2 2 1 1 1 1 0 0 0 -0 -1 -1 -2 -2 -2 -3 -3 -3 -4 -4 -4 -4 -4 -3 -3 -3 -3 -3 -3 -3 -3
2 2 2 2 3 2 2 2 2 2 2 1 1 1 1 0 -0 -0 -0 -1 -1 -2 -2 -2 -3 -3 -4 -4 -4 -4 -5 -5 -5 -5 -5 -3 -3 -3 -3 -4 -4 -4 -4
2 2 1 1 2 2 1 1 1 1 1 1 0 -0 -0 -1 -1 -1 -1 -2 -2 -2 -3 -3 -4 -4 -4 -5 -5 -5 -5 -5 -5 -5 -6 -5 -3 -3 -3 -3 -3 -4 -4
1 1 1 1 1 1 0 0 0 0 -0 -0 -1 -1 -1 -2 -2 -2 -2 -3 -3 -3 -4 -4 -5 -5 -5 -6 -6 -6 -6 -6 -5 -5 -5 -5 -5 -4 -3 -3 -3 -4 -4
0 0 0 0 -0 -0 -0 -0 -1 -1 -1 -1 -2 -2 -2 -3 -3 -3 -3 -3 -4 -4 -4 -5 -5 -5 -5 -6 -6 -6 -6 -6 -7 -6 -6 -6 -6 -6 -5 -3 -3 -4 -4
Wind_Speed
7 9 10 11 12 12 11 9 9 9 9 10 11 10 9 10 12 14 15 17 16 15 14 13 12 11 11 10 9 9 9 8 8 8 8 7 7 7 7 7 7 8 8
12 10 9 10 12 13 13 12 11 9 8 8 8 10 10 11 13 15 16 18 18 17 16 14 14 13 12 12 11 10 9 8 8 7 7 7 6 6 6 6 5 5 5
15 13 9 8 12 15 14 12 10 9 6 6 6 8 9 10 13 15 17 17 18 19 18 17 16 15 14 14 13 12 10 9 8 7 7 6 5 5 4 4 3 3 3
18 14 8 8 14 14 12 7 5 5 6 5 5 4 5 8 11 14 16 17 18 18 19 19 18 17 16 16 14 13 12 11 9 8 7 6 5 4 3 3 2 1 1
17 14 10 10 13 10 8 6 6 5 6 6 5 5 4 4 7 11 12 16 18 19 19 20 20 20 19 18 17 15 14 13 11 9 8 7 6 5 4 3 2 2 1
15 14 9 10 11 7 7 6 6 6 5 5 5 5 5 5 5 6 10 14 16 19 20 20 19 20 20 20 19 17 16 14 13 11 9 8 7 6 5 4 3 3 3
13 11 7 7 8 8 9 9 7 7 6 4 3 3 4 4 6 6 7 8 12 17 19 20 19 19 19 21 21 19 17 16 14 13 11 10 8 7 6 5 5 5 5
11 10 8 7 7 8 9 9 8 5 5 6 5 3 4 4 5 7 6 7 9 12 14 18 18 19 19 19 20 20 19 17 16 14 12 11 10 9 8 7 7 7 7
9 10 9 7 7 8 9 10 10 9 8 7 6 5 5 7 4 3 5 6 6 6 8 13 16 18 19 19 19 19 19 18 16 15 13 12 11 9 8 8 8 8 8
6 8 8 8 7 7 8 9 9 9 8 7 5 6 5 4 5 4 3 3 5 7 7 8 12 15 17 17 18 18 18 17 16 15 14 12 11 10 9 9 9 9 9
4 5 6 5 6 7 8 8 8 9 8 8 7 5 6 4 4 5 6 3 3 4 5 5 6 9 14 15 16 17 18 17 17 15 14 12 11 10 10 10 10 10 10
2 3 4 4 4 5 6 7 7 8 8 9 8 6 6 5 6 7 9 6 4 2 2 1 2 4 7 10 13 16 17 17 16 15 13 12 11 10 9 9 10 11 12
2 3 2 3 3 4 4 5 5 6 6 7 8 7 7 7 4 4 6 5 4 2 1 0 1 2 4 6 8 12 14 15 14 13 13 11 10 8 9 10 11 12 14
1 2 2 2 2 2 3 3 3 4 3 4 5 6 5 5 4 4 4 4 4 3 3 3 0 1 3 4 7 10 10 12 11 10 10 9 9 8 10 11 13 14 15
2 3 3 3 3 3 3 2 1 2 1 1 1 1 1 0 0 1 2 3 4 5 5 4 2 1 2 5 7 8 8 10 10 9 9 9 10 11 12 13 14 15 15
5 5 5 5 5 5 5 4 3 3 4 4 3 4 3 3 3 2 1 0 1 3 3 1 1 1 1 3 5 6 6 6 7 8 9 10 11 13 13 13 15 15 15
6 6 6 6 7 7 6 6 6 6 6 6 6 6 6 5 4 4 3 2 2 0 2 1 2 2 2 2 3 4 4 4 4 6 8 10 11 12 13 14 15 15 15
7 7 7 8 8 8 8 8 8 8 8 7 7 7 7 5 6 5 4 4 3 3 1 2 1 1 2 1 2 2 1 2 3 6 8 11 12 12 13 14 14 14 15
8 8 8 9 9 8 9 9 9 9 9 9 8 8 7 7 7 6 6 5 4 4 3 3 2 2 2 1 1 1 0 1 3 5 8 10 11 12 12 13 14 14 14
8 8 8 8 8 9 9 9 9 9 10 9 9 8 7 7 6 6 6 5 5 5 5 4 3 2 2 2 1 1 1 1 2 4 6 8 9 11 12 13 14 14 14
8 8 8 8 7 7 8 9 9 9 9 9 9 8 8 8 8 7 5 4 4 4 3 3 2 2 2 1 1 1 1 2 3 2 2 4 7 9 12 13 13 14 14
8 8 8 8 8 8 12 13 10 8 8 8 8 7 7 8 10 10 9 7 5 3 2 2 1 1 1 1 1 0 0 1 3 2 2 5 5 6 9 12 13 14 14
8 8 8 8 8 10 13 13 13 8 7 7 6 5 5 6 7 6 7 9 8 7 4 2 1 1 1 2 1 1 2 2 4 3 2 4 3 5 8 11 13 14 13
6 6 7 7 6 9 12 12 12 8 6 6 5 5 5 4 3 4 4 5 5 5 4 2 2 3 3 4 4 3 4 3 4 4 3 4 3 4 5 10 13 11 9
6 6 5 6 6 6 9 10 9 5 5 5 4 4 3 3 4 5 4 3 4 4 5 6 4 4 5 6 4 1 1 2 3 3 2 2 3 4 4 4 7 7 8
5 5 5 4 5 4 7 8 8 4 4 3 3 4 4 3 4 4 2 1 2 3 3 4 5 6 7 7 6 1 2 2 2 3 2 2 2 3 5 3 3 7 11
Wind_Direction
185 187 192 193 195 196 199 206 214 223 235 243 246 243 232 211 199 194 192 189 184 181 180 180 180 178 175 170 164 159 153 147 142 137 131 124 117 110 104 96 90 83 77
190 190 194 199 203 205 208 212 217 221 229 234 239 236 228 212 200 195 194 192 190 187 187 190 191 190 188 183 178 173 169 164 158 153 146 140 133 125 117 108 96 85 77
196 194 196 201 208 210 212 216 223 226 232 231 231 227 219 207 200 198 197 195 195 195 195 198 199 198 197 194 190 185 182 179 174 169 164 159 153 145 136 125 111 92 75
199 198 201 205 208 208 208 208 211 219 229 230 230 229 215 205 203 203 201 201 199 200 202 205 205 204 204 203 199 195 192 189 186 184 182 179 177 174 170 164 153 126 62
204 202 206 209 205 204 205 209 207 204 217 226 228 230 225 214 207 206 206 207 206 205 205 209 210 208 208 209 208 204 200 197 197 196 195 195 196 199 203 207 217 247 283
211 208 211 209 202 203 208 208 209 208 210 212 222 232 237 235 221 211 211 212 213 212 210 210 211 211 210 211 214 212 207 203 203 204 205 206 210 216 224 231 241 260 280
216 212 214 209 206 212 214 211 210 214 219 187 192 257 277 251 238 229 216 214 216 216 214 212 210 208 209 213 215 216 213 209 208 210 212 215 219 225 233 242 252 265 281
224 220 215 216 214 218 220 216 210 212 213 185 181 200 268 291 258 233 218 219 219 215 215 214 212 208 206 207 212 215 216 215 214 215 217 221 224 231 238 247 259 270 279
235 231 227 221 220 218 224 222 215 213 221 210 196 182 199 234 260 272 238 230 221 215 219 216 214 212 209 207 207 211 213 215 218 221 223 225 229 236 246 255 265 274 282
244 242 237 231 228 226 226 227 222 220 218 221 217 221 216 187 200 259 272 247 229 223 221 218 215 215 212 208 207 207 207 211 219 226 231 232 234 240 249 260 271 279 285
262 258 249 242 241 237 236 235 229 223 221 223 213 208 226 231 217 226 259 260 258 241 230 228 219 215 214 210 205 205 205 209 218 228 235 240 244 249 258 269 279 286 291
277 282 272 258 251 249 247 245 240 233 230 228 224 210 202 205 210 217 239 240 239 252 253 236 235 226 216 210 207 205 206 209 217 226 234 244 251 259 270 278 286 293 295
313 314 300 279 270 264 260 253 244 242 236 233 231 229 226 229 213 212 232 240 235 238 289 257 237 216 204 197 198 198 204 209 217 226 235 243 252 269 281 286 290 292 292
312 327 334 332 321 309 289 267 251 250 248 244 244 238 234 236 229 220 216 219 239 241 234 234 147 181 164 166 171 177 194 202 211 224 237 250 264 277 281 282 285 285 286
8 10 14 19 13 8 357 348 340 315 315 317 300 278 244 253 214 222 216 207 219 244 246 210 188 120 162 162 172 173 179 194 204 219 237 255 267 274 274 274 277 279 279
30 33 34 35 34 32 35 46 44 39 57 48 47 61 55 45 44 39 38 32 228 233 250 108 105 61 106 137 158 147 164 186 211 232 249 259 266 269 273 276 277 276 278
41 44 44 48 46 41 40 52 54 56 67 62 58 66 63 57 58 49 50 51 42 76 222 87 68 59 75 101 117 129 156 186 234 253 264 269 272 275 275 276 276 277 278
48 49 52 56 54 50 49 56 59 58 65 68 66 72 70 70 65 55 58 56 50 41 112 132 88 77 79 125 107 120 157 212 248 264 271 275 277 279 280 281 281 281 281
56 55 57 60 58 57 58 60 65 65 66 65 64 69 69 73 70 63 61 58 50 49 56 97 85 59 63 75 84 70 20 313 280 278 278 282 286 287 288 288 287 287 286
63 61 62 64 64 64 64 67 71 71 71 67 65 66 66 71 77 74 68 60 58 57 59 72 71 59 54 55 66 35 333 321 291 292 291 295 297 297 297 296 294 293 290
66 64 67 67 69 70 70 75 74 77 76 73 64 59 63 74 82 81 81 71 66 62 58 60 60 48 33 32 18 4 324 328 299 293 305 296 299 295 294 295 293 289 285
66 66 65 66 67 72 79 82 84 76 75 72 67 56 55 54 60 64 71 71 72 73 74 71 58 48 352 335 348 352 336 359 310 301 317 292 281 277 280 283 284 286 285
75 70 65 66 69 76 81 84 86 83 78 74 68 60 58 54 55 46 50 46 40 43 56 120 140 206 235 234 213 260 248 236 248 270 303 286 275 276 277 282 292 291 290
81 78 70 63 65 77 84 87 89 77 74 69 67 70 66 39 57 68 59 42 24 14 17 59 187 228 233 233 218 217 230 253 262 260 226 270 291 278 286 289 293 292 294
92 84 78 68 63 69 85 90 90 75 70 59 53 60 72 34 34 55 65 39 14 349 358 3 348 321 309 310 293 231 272 298 301 287 226 245 294 301 291 285 292 303 311
108 99 84 69 66 57 81 88 92 85 79 60 41 25 21 23 13 31 92 54 339 311 323 343 351 352 351 347 347 352 203 216 260 287 274 258 291 329 315 288 267 279 289
Height
1561 1562 1563 1564 1565 1566 1567 1568 1568 1568 1569 1569 1570 1570 1570 1570 1570 1570 1570 1570 1570 1569 1569 1568 1568 1567 1566 1566 1565 1565 1564 1564 1563 1563 1562 1562 1561 1561 1560 1560 1559 1558 1558
1559 1560 1561 1562 1563 1564 1565 1566 1566 1566 1567 1567 1567 1567 1568 1568 1567 1568 1568 1568 1568 1567 1567 1566 1566 1565 1565 1564 1564 1563 1563 1563 1563 1562 1562 1561 1561 1560 1560 1559 1559 1558 1557
1557 1558 1558 1559 1561 1562 1562 1563 1563 1564 1564 1564 1564 1564 1565 1565 1565 1565 1565 1565 1565 1565 1565 1564 1564 1563 1563 1562 1562 1562 1561 1561 1561 1561 1560 1560 1560 1559 1559 1558 1558 1557 1557
1554 1555 1556 1557 1558 1559 1559 1559 1560 1560 1561 1561 1561 1562 1562 1562 1562 1562 1562 1562 1562 1562 1562 1562 1561 1561 1560 1560 1560 1559 1559 1559 1559 1559 1559 1558 1558 1558 1557 1557 1556 1556 1555
1551 1552 1553 1554 1555 1555 1555 1556 1556 1557 1557 1558 1558 1558 1559 1559 1559 1559 1558 1558 1559 1559 1559 1559 1558 1558 1558 1557 1557 1557 1556 1556 1556 1556 1556 1556 1556 1555 1555 1555 1554 1554 1554
1548 1549 1549 1550 1551 1551 1552 1552 1553 1553 1553 1554 1555 1554 1554 1554 1554 1554 1554 1554 1554 1554 1554 1554 1554 1554 1554 1554 1554 1554 1553 1553 1553 1553 1553 1553 1553 1553 1552 1552 1552 1552 1551
1544 1545 1545 1546 1547 1547 1548 1548 1549 1549 1549 1550 1550 1550 1549 1549 1549 1549 1549 1548 1548 1549 1549 1549 1549 1549 1550 1550 1550 1550 1550 1549 1549 1549 1549 1549 1549 1549 1549 1549 1549 1549 1549
1539 1540 1541 1541 1542 1542 1543 1543 1544 1544 1544 1545 1545 1545 1543 1543 1541 1542 1542 1542 1542 1542 1542 1542 1543 1543 1544 1544 1545 1545 1545 1545 1545 1545 1545 1545 1545 1545 1545 1545 1545 1545 1545
1534 1535 1535 1536 1536 1537 1537 1537 1538 1538 1538 1539 1540 1540 1538 1535 1536 1535 1535 1535 1535 1535 1535 1536 1536 1536 1537 1538 1538 1539 1539 1540 1540 1540 1540 1540 1540 1541 1541 1541 1541 1541 1541
1529 1529 1530 1530 1530 1531 1531 1531 1532 1532 1532 1532 1532 1532 1532 1531 1531 1528 1529 1529 1529 1529 1529 1529 1529 1529 1530 1530 1531 1532 1532 1533 1533 1534 1535 1535 1536 1536 1536 1537 1537 1536 1536
1523 1523 1524 1524 1524 1524 1524 1525 1525 1525 1525 1525 1525 1525 1525 1525 1524 1524 1522 1522 1522 1522 1522 1522 1521 1522 1522 1522 1523 1524 1525 1526 1527 1528 1529 1530 1530 1530 1530 1531 1531 1531 1530
1517 1517 1517 1517 1518 1518 1518 1518 1518 1519 1518 1518 1519 1518 1519 1518 1517 1517 1516 1514 1514 1515 1515 1515 1514 1514 1514 1515 1516 1517 1518 1519 1520 1521 1523 1524 1524 1524 1524 1524 1524 1524 1524
1511 1511 1511 1511 1511 1511 1511 1511 1511 1512 1512 1512 1512 1512 1512 1511 1511 1511 1510 1508 1507 1507 1507 1507 1507 1507 1507 1507 1508 1509 1511 1512 1513 1515 1516 1517 1518 1517 1517 1517 1517 1517 1517
1505 1505 1505 1505 1505 1505 1505 1505 1505 1505 1505 1505 1505 1505 1505 1505 1505 1505 1504 1504 1502 1500 1500 1500 1500 1500 1499 1500 1500 1502 1504 1505 1506 1508 1510 1510 1510 1510 1511 1510 1510 1510 1510
1500 1500 1499 1499 1499 1499 1498 1498 1498 1498 1499 1499 1499 1499 1499 1499 1499 1499 1499 1498 1498 1495 1493 1494 1494 1494 1493 1493 1494 1496 1497 1498 1499 1501 1502 1503 1504 1504 1504 1503 1504 1503 1503
1495 1495 1495 1494 1494 1493 1493 1493 1493 1493 1493 1493 1493 1493 1493 1493 1493 1493 1493 1493 1493 1492 1490 1489 1489 1489 1488 1488 1489 1490 1492 1493 1494 1495 1496 1497 1497 1497 1497 1497 1497 1496 1496
1491 1491 1490 1490 1490 1489 1489 1489 1488 1488 1488 1488 1488 1488 1488 1488 1488 1488 1488 1488 1487 1487 1486 1485 1485 1485 1485 1485 1485 1486 1487 1488 1489 1490 1490 1491 1492 1491 1491 1491 1490 1490 1489
1488 1488 1487 1487 1486 1486 1486 1485 1485 1485 1485 1485 1485 1485 1485 1485 1484 1484 1484 1484 1483 1483 1483 1482 1482 1481 1481 1482 1482 1483 1483 1484 1484 1485 1485 1486 1486 1485 1485 1484 1484 1483 1483
1485 1485 1484 1484 1484 1483 1483 1483 1482 1482 1482 1482 1482 1482 1481 1481 1481 1481 1481 1480 1480 1480 1479 1479 1479 1479 1479 1479 1479 1480 1480 1480 1480 1480 1480 1480 1480 1480 1479 1478 1478 1477 1477
1483 1483 1482 1482 1481 1481 1481 1480 1480 1480 1480 1479 1479 1479 1479 1479 1479 1478 1478 1478 1478 1477 1477 1477 1477 1476 1477 1477 1477 1477 1476 1476 1476 1476 1476 1475 1475 1474 1473 1472 1472 1471 1471
1481 1481 1481 1480 1480 1479 1479 1479 1479 1478 1478 1478 1478 1478 1478 1478 1477 1477 1477 1476 1476 1476 1475 1475 1475 1474 1474 1474 1474 1473 1473 1473 1473 1472 1471 1471 1470 1469 1469 1467 1466 1466 1465
1481 1481 1480 1480 1479 1479 1479 1478 1478 1478 1478 1478 1477 1477 1477 1477 1477 1476 1476 1475 1475 1474 1474 1473 1473 1472 1472 1472 1471 1471 1470 1470 1469 1469 1467 1467 1466 1464 1463 1462 1462 1461 1460
1481 1481 1480 1480 1480 1479 1479 1479 1479 1479 1478 1478 1478 1477 1477 1477 1476 1476 1475 1474 1473 1473 1472 1472 1471 1471 1470 1469 1469 1468 1468 1467 1466 1465 1463 1461 1461 1460 1459 1457 1457 1455 1454
1481 1481 1481 1480 1480 1480 1480 1479 1479 1479 1479 1478 1478 1477 1476 1476 1475 1474 1473 1473 1472 1471 1470 1469 1469 1468 1468 1467 1466 1466 1465 1463 1462 1462 1460 1457 1456 1455 1454 1453 1451 1450 1450
1481 1481 1481 1481 1481 1480 1480 1480 1480 1479 1478 1478 1477 1476 1475 1475 1474 1473 1472 1471 1470 1469 1468 1468 1467 1466 1465 1465 1464 1463 1462 1461 1458 1458 1456 1454 1452 1449 1448 1447 1446 1445 1444
1481 1482 1481 1481 1481 1481 1480 1480 1479 1479 1478 1477 1476 1475 1474 1473 1472 1471 1470 1469 1468 1467 1467 1466 1465 1464 1463 1462 1461 1460 1459 1458 1456 1454 1453 1451 1448 1446 1442 1441 1441 1441 1439